Weather History for Leadville, CO

Change the Weather History Date:

Sunday, February 2, 2014

  Actual Average Record
Temperature  
Mean Temperature 8 °F -  
Max Temperature 26 °F 30 °F 44 °F (1987)
Min Temperature -10 °F 3 °F -32 °F (2011)
Degree Days  
Heating Degree Days 57 48  
Month to date heating degree days 116 96  
Since 1 July heating degree days 6355 6493  
Cooling Degree Days 0 0  
Month to date cooling degree days 0 0  
Year to date cooling degree days 0 0  
Moisture  
Dew Point -7 °F    
Average Humidity 55    
Maximum Humidity 87    
Minimum Humidity 22    
Precipitation  
Precipitation 0.00 in 0.02 in 0.33 in (1977)
Month to date precipitation T 0.04  
Year to date precipitation 2.96 0.66  
Sea Level Pressure  
Sea Level Pressure 30.01 in    
Wind  
Wind Speed 7 mph (NE)    
Max Wind Speed 18 mph    
Max Gust Speed 23 mph    
Visibility 10 miles    
Events      
T = Trace of Precipitation, MM = Missing Value Source: NWS Daily Summary

Daily Weather History Graph

Daily Weather History Graph

Search for Another Location

Airport:

Trip Planner

Search our weather history database for the weather conditions in past years. The results will help you decide how hot, cold, wet, or windy it might be!

Date:

Astronomy

Feb. 02, 2014 Rise Set
Actual Time 7:11 AM MST 5:27 PM MST
Civil Twilight 6:42 AM MST 5:55 PM MST
Nautical Twilight 6:11 AM MST 6:27 PM MST
Astronomical Twilight 5:39 AM MST 6:58 PM MST
Moon 8:41 AM MST (2/2) 9:12 PM MST (2/2)
Length of Visible Light 11h 12m
Length of Day
10h 16m
Waxing Crescent, 12% of the Moon is Illuminated
Feb 2
Waxing Crescent
Feb 6
First Quarter
Feb 14
Full
Feb 22
Last Quarter
Mar 1
New

Hourly Weather History & Observations

Time (MST) Temp. Windchill Dew Point Humidity Pressure Visibility Wind Dir Wind Speed Gust Speed Precip Events Conditions
12:53 AM -2.9 °F -16.5 °F -8.0 °F 79% 30.01 in 6.0 mi ENE 6.9 mph - N/A   Haze
1:09 AM -5.1 °F -19.1 °F -9.9 °F 80% 29.87 in 8.0 mi East 6.9 mph - N/A   Overcast
1:38 AM -9.0 °F -25.2 °F -13.0 °F 83% 29.87 in 10.0 mi NE 8.1 mph - N/A   Scattered Clouds
1:53 AM -8.0 °F -26.1 °F -13.0 °F 79% 30.02 in 10.0 mi NE 10.4 mph - N/A   Clear
2:53 AM -6.0 °F -22.6 °F -11.0 °F 79% 30.03 in 10.0 mi NE 9.2 mph - N/A   Clear
3:53 AM -6.0 °F -24.6 °F -11.9 °F 75% 30.04 in 10.0 mi North 11.5 mph - N/A   Clear
4:53 AM -6.0 °F -25.5 °F -11.9 °F 75% 30.06 in 10.0 mi NNE 12.7 mph - N/A   Clear
5:53 AM -2.0 °F -23.3 °F -9.9 °F 69% 30.08 in 10.0 mi North 17.3 mph - N/A   Clear
6:53 AM -8.0 °F -26.1 °F -13.0 °F 79% 30.15 in 10.0 mi North 10.4 mph - N/A   Clear
7:53 AM -6.0 °F -25.5 °F -14.1 °F 68% 30.17 in 10.0 mi NE 12.7 mph - N/A   Clear
8:53 AM -4.0 °F - -11.9 °F 69% 30.19 in 10.0 mi Calm Calm - N/A   Clear
9:53 AM 9.0 °F - -6.0 °F 51% 30.11 in 10.0 mi Calm Calm - N/A   Clear
10:53 AM 12.9 °F 6.9 °F -4.0 °F 47% 30.07 in 10.0 mi West 3.5 mph - N/A   Clear
11:53 AM 19.9 °F 13.4 °F -11.0 °F 25% 29.99 in 10.0 mi NNE 4.6 mph - N/A   Clear
12:53 PM 21.9 °F 11.7 °F -7.1 °F 28% 29.91 in 10.0 mi NNW 9.2 mph - N/A   Clear
1:53 PM 23.0 °F 14.7 °F -4.0 °F 31% 29.92 in 10.0 mi NNW 6.9 mph - N/A   Clear
2:53 PM 24.1 °F - -9.0 °F 23% 29.90 in 10.0 mi Calm Calm - N/A   Clear
3:53 PM 16.0 °F 3.6 °F -2.9 °F 43% 29.96 in 10.0 mi South 10.4 mph - N/A   Clear
4:53 PM 12.0 °F -2.0 °F 3.0 °F 67% 29.98 in 10.0 mi South 11.5 mph - N/A   Clear
5:53 PM 8.1 °F -0.5 °F -0.0 °F 70% 30.00 in 10.0 mi ESE 4.6 mph - N/A   Clear
6:53 PM 3.0 °F -10.5 °F -2.9 °F 76% 30.08 in 10.0 mi NE 8.1 mph - N/A   Clear
7:53 PM 1.0 °F -8.7 °F -5.1 °F 75% 30.06 in 10.0 mi ENE 4.6 mph - N/A   Clear
8:53 PM 1.0 °F - -5.1 °F 75% 30.04 in 10.0 mi Calm Calm - N/A   Mostly Cloudy
9:53 PM 1.9 °F - -2.9 °F 80% 29.95 in 10.0 mi Calm Calm - N/A   Clear
10:53 PM 1.9 °F -10.6 °F -4.0 °F 76% 29.92 in 10.0 mi Variable 6.9 mph - N/A   Scattered Clouds
11:53 PM 1.0 °F - -5.1 °F 75% 29.87 in 10.0 mi North - - N/A   Overcast